Terminal Aerodrome Forecast
Issued by NWS

Home | Current Version | Previous Version | Graphics & Text | Print | Product List | Glossary On
Versions: 1 2 3 4 5 6 7 8 9 10 11 12 13 14 15 16 17 18 19 20 21
306
FTUS43 KBIS 140133 AAA
TAFMOT
TAF AMD
KMOT 140133Z 1402/1424 17006KT P6SM SCT020
     FM140400 16005KT P6SM BKN020
     FM140900 26012KT P6SM BKN040
     FM141300 28015G23KT P6SM OVC045
     FM141500 30017G26KT P6SM OVC020
     FM141600 30018G28KT 5SM BLSN BKN020=

USA.gov is the U.S. government's official web portal to all federal, state and local government web resources and services.